Torna al catalogo

CZ-4 DEB

AttivoSSO
NORAD 35327·DEBRIS·🇨🇳 China

Lanciato Oct 14, 1999 da Taiyuan Satellite Launch Center

Loading…

Prossimi Passaggi (prossime 24 ore)

TLE

In scadenzaSource: Space-Track

Epoca: Sep 7, 2026, 11:23 UTC

1 35327U 99057SF  26250.47457346  .00001624  00000-0  31098-3 0  9992
2 35327  98.4631 343.0038 0071118 216.3446 143.2914 14.63694321725375

Traccia CZ-4 DEB in tempo reale con AllMySat

Download on the App Store